This is the latest recevied weather packets stored in our database for station/object W5ITZ. If no packets are shown the sender has not sent any weather packets the latest 10 day(s).
| Time | Temp. | Humidity | Pressure | Rain* | Wind** | Luminosity | Snow |
|---|---|---|---|---|---|---|---|
| 1787847462 | 31.67° C | 60% | 1016 hPa | 0 mm | - | 599 W/m² | - |
| 1787847157 | 32.22° C | 59% | 1015.9 hPa | 0 mm | - | 360 W/m² | - |
| 1787846854 | 32.22° C | 59% | 1016.1 hPa | 0 mm | - | 366 W/m² | - |
| 1787846554 | 32.22° C | 59% | 1016 hPa | 0 mm | - | 662 W/m² | - |
| 1787846250 | 32.22° C | 62% | 1016 hPa | 0 mm | - | 737 W/m² | - |
| 1787845946 | 31.67° C | 62% | 1015.8 hPa | 0 mm | - | 696 W/m² | - |
| 1787845641 | 31.67° C | 64% | 1016 hPa | 0 mm | - | 685 W/m² | - |
| 1787845340 | 31.67° C | 65% | 1016.2 hPa | 0 mm | - | 666 W/m² | - |
| 1787845037 | 31.11° C | 66% | 1016 hPa | 0 mm | - | 648 W/m² | - |
| 1787844732 | 31.67° C | 65% | 1016.2 hPa | 0 mm | - | 630 W/m² | - |
| 1787844430 | 31.11° C | 67% | 1016.3 hPa | 0 mm | - | 612 W/m² | - |
| 1787844126 | 31.11° C | 67% | 1016.3 hPa | 0 mm | - | 595 W/m² | - |
| 1787843820 | 30.56° C | 69% | 1016.3 hPa | 0 mm | - | 583 W/m² | - |
| 1787843515 | 30.56° C | 69% | 1016.1 hPa | 0 mm | - | 572 W/m² | - |
| 1787843213 | 30.56° C | 70% | 1016.1 hPa | 0 mm | - | 526 W/m² | - |
| 1787842913 | 30.56° C | 71% | 1016 hPa | 0 mm | - | 527 W/m² | - |
| 1787842613 | 30.56° C | 71% | 1015.9 hPa | 0 mm | - | 508 W/m² | - |
| 1787842308 | 30° C | 73% | 1016.2 hPa | 0 mm | - | 501 W/m² | - |
| 1787842007 | 30° C | 74% | 1016 hPa | 0 mm | - | 192 W/m² | - |
| 1787841703 | 30° C | 75% | 1016.1 hPa | 0 mm | - | 441 W/m² | - |
| 1787841403 | 29.44° C | 76% | 1016 hPa | 0 mm | - | 418 W/m² | - |
| 1787841097 | 30° C | 75% | 1016 hPa | 0 mm | - | 397 W/m² | - |
| 1787840793 | 29.44° C | 77% | 1016 hPa | 0 mm | - | 375 W/m² | - |
| 1787840488 | 29.44° C | 78% | 1016 hPa | 0 mm | - | 356 W/m² | - |
| 1787840183 | 28.89° C | 79% | 1015.8 hPa | 0 mm | - | 340 W/m² | - |
* Rain latest hour (hover to see other rain measurements)
** Current wind speed in m/s (hover to see current wind gust speed)